Regional Weather Roundup
Issued by NWS

Home | Current Version | Previous Version | Text Only | Print | Product List | Glossary Off
Versions: 1 2 3 4 5 6 7 8 9 10 11 12 13 14 15 16 17 18 19 20 21 22 23 24 25 26 27 28 29 30 31 32 33 34 35 36 37 38 39 40 41 42 43 44 45 46 47 48 49 50

977
ASUS43 KOAX 201010
RWRNE

WEATHER ROUNDUP FOR NEBRASKA
NATIONAL WEATHER SERVICE OMAHA NE
400 AM CST MON FEB 20 2017

NOTES: SATELLITE DATA IS BEING USED TO AUGMENT CLOUD COVER ABOVE
       12000 FEET.
       "FAIR" INDICATES FEW OR NO CLOUDS BELOW 12,000 FEET WITH NO
       SIGNIFICANT WEATHER AND/OR OBSTRUCTIONS TO VISIBILITY.

  * THESE STATIONS DO NOT REPORT WEATHER SUCH AS RAIN...SNOW OR FOG.

NEZ001>004-019>022-054>056-201100-
NEBRASKA PANHANDLE

CITY           SKY/WX    TMP DP  RH WIND       PRES   REMARKS
SCOTTSBLUFF    CLOUDY    45  25  45 W17G28    29.75R
ALLIANCE       CLOUDY    47  22  37 W28G40    29.70R
CHADRON        CLOUDY    46  34  62 W21       29.67R
KIMBALL        PTCLDY    43  23  45 NW24G31   29.79R
SIDNEY         CLOUDY    47  24  40 NW18      29.77R
$$

NEZ057>060-069>072-079>082-201100-
SOUTHWEST NEBRASKA

CITY           SKY/WX    TMP DP  RH WIND       PRES   REMARKS
NORTH PLATTE   CLOUDY    49  45  86 S6        29.67R
IMPERIAL       MOCLDY    47  35  63 NW10      29.72R
LEXINGTON      MOCLDY    51  49  93 S8        29.67F FOG
MCCOOK         MOCLDY    48  40  73 SW9       29.67R
OGALLALA       CLOUDY    50  37  61 NW15      29.70S
$$

NEZ005>010-023>029-035>040-094-201100-
NORTH CENTRAL NEBRASKA

CITY           SKY/WX    TMP DP  RH WIND       PRES   REMARKS
VALENTINE      MOCLDY    47  42  83 SW10      29.60R
AINSWORTH      CLOUDY    50  49  96 S13       29.61R
BROKEN BOW     CLOUDY    53  51  93 S9        29.64F FOG
O`NEILL        CLOUDY    55  53  94 S13       29.64S FOG
ORD            CLOUDY    56  51  84 S12       29.66R
THEDFORD       MOCLDY    51  47  87 SW10      29.65R
$$

NEZ041-046>049-061>064-073>077-083>087-201100-
SOUTH CENTRAL NEBRASKA

CITY           SKY/WX    TMP DP  RH WIND       PRES   REMARKS
GRAND ISLAND   CLOUDY    56  55  97 S13       29.71R FOG
AURORA         CLOUDY    55  54  95 S9        29.72R
HASTINGS       CLOUDY    57  54  89 S10       29.70F
HEBRON         CLOUDY    59  57  91 S10       29.71F
HOLDREGE       CLOUDY    53  52  96 S12G17    29.68F FOG
KEARNEY *      CLOUDY    55  52  88 S13       29.70S
YORK           CLOUDY    55  55 100 S9        29.73S
$$

NEZ011>018-030>034-042>045-201100-
NORTHEAST NEBRASKA

CITY           SKY/WX    TMP DP  RH WIND       PRES   REMARKS
NORFOLK        CLOUDY    56  52  86 S14G20    29.71R
ALBION         CLOUDY    55  52  89 S10       29.72R FOG
BLAIR          CLOUDY    59  55  89 SE9       29.74F
FREMONT        CLOUDY    59  55  86 S9G17     29.75R
TEKAMAH        CLOUDY    55  52  89 SE13      29.75S
WAYNE          CLOUDY    54  53  97 S16       29.70R
$$

NEZ050>053-065>068-078-088>093-201100-
SOUTHEAST NEBRASKA

CITY           SKY/WX    TMP DP  RH WIND       PRES   REMARKS
LINCOLN        CLOUDY    59  56  89 S7        29.74F
OMAHA EPPLEY   LGT RAIN  58  53  84 SE16      29.74F
BEATRICE       CLOUDY    60  58  91 SE10      29.72F
FALLS CITY     LGT RAIN  58  58 100 SE15      29.79F
NEBRASKA CITY  CLOUDY    56  55  97 S15       29.79S
PLATTSMOUTH    LGT RAIN  57  53  88 SE14      29.77S
$$

NEZ044-045-051>053-067-201100-
OMAHA AREA

CITY           SKY/WX    TMP DP  RH WIND       PRES   REMARKS
OMAHA EPPLEY   LGT RAIN  58  53  84 SE16      29.74F
BLAIR          CLOUDY    59  55  89 SE9       29.74F
FREMONT        CLOUDY    59  55  86 S9G17     29.75R
MILLARD        LGT RAIN  61  57  88 S6        29.75F
OFFUTT AFB     LGT RAIN  64  64 100 SE12      29.75F
PLATTSMOUTH    LGT RAIN  57  53  88 SE14      29.77S
WAHOO          PTSUNNY   56  53  92 S7        29.74S
$$




USA.gov is the U.S. government's official web portal to all federal, state and local government web resources and services.